Year,Month,Day,Hour,Minute,Value (Times are PST for temperature in C)
2011,11,17,00,00,6.60
2011,11,17,00,01,6.40
2011,11,17,00,02,6.40
2011,11,17,00,03,6.40
2011,11,17,00,04,6.40
2011,11,17,00,05,6.30
2011,11,17,00,06,6.20
2011,11,17,00,07,6.20
2011,11,17,00,08,6.20
2011,11,17,00,09,6.20
2011,11,17,00,10,6.20
2011,11,17,00,11,6.20
2011,11,17,00,12,6.10
2011,11,17,00,13,6.10
2011,11,17,00,14,6.10
2011,11,17,00,15,6.10
2011,11,17,00,16,6.10
2011,11,17,00,17,6.10
2011,11,17,00,18,6.10
2011,11,17,00,19,6.10
2011,11,17,00,20,6.00
2011,11,17,00,21,6.00
2011,11,17,00,22,6.00
2011,11,17,00,23,6.00
2011,11,17,00,24,5.90
2011,11,17,00,25,5.90
2011,11,17,00,26,5.90
2011,11,17,00,27,5.80
2011,11,17,00,28,5.80
2011,11,17,00,29,5.70
2011,11,17,00,30,5.70
2011,11,17,00,31,5.70
2011,11,17,00,32,5.70
2011,11,17,00,33,5.70
2011,11,17,00,34,5.70
2011,11,17,00,35,5.70
2011,11,17,00,36,5.70
2011,11,17,00,37,5.70
2011,11,17,00,38,5.70
2011,11,17,00,39,5.70
2011,11,17,00,40,5.70
2011,11,17,00,41,5.70
2011,11,17,00,42,5.70
2011,11,17,00,43,5.70
2011,11,17,00,44,5.70
2011,11,17,00,45,5.70
2011,11,17,00,46,5.70
2011,11,17,00,47,5.70
2011,11,17,00,48,5.70
2011,11,17,00,49,5.70
2011,11,17,00,50,5.60
2011,11,17,00,51,5.60
2011,11,17,00,52,5.60
2011,11,17,00,53,5.50
2011,11,17,00,54,5.50
2011,11,17,00,55,5.60
2011,11,17,00,56,5.60
2011,11,17,00,57,5.60
2011,11,17,00,58,5.60
2011,11,17,00,59,5.60
2011,11,17,01,00,5.60
2011,11,17,01,01,5.60
2011,11,17,01,02,5.50
2011,11,17,01,03,5.50
2011,11,17,01,04,5.50
2011,11,17,01,05,5.50
2011,11,17,01,06,5.50
2011,11,17,01,07,5.50
2011,11,17,01,08,5.40
2011,11,17,01,09,5.40
2011,11,17,01,10,5.30
2011,11,17,01,11,5.30
2011,11,17,01,12,5.30
2011,11,17,01,13,5.30
2011,11,17,01,14,5.20
2011,11,17,01,15,5.10
2011,11,17,01,16,5.10
2011,11,17,01,17,5.10
2011,11,17,01,18,5.10
2011,11,17,01,19,5.20
2011,11,17,01,20,5.30
2011,11,17,01,21,5.30
2011,11,17,01,22,5.30
2011,11,17,01,23,5.30
2011,11,17,01,24,5.30
2011,11,17,01,25,5.30
2011,11,17,01,26,5.30
2011,11,17,01,27,5.30
2011,11,17,01,28,5.30
2011,11,17,01,29,5.30
2011,11,17,01,30,5.30
2011,11,17,01,31,5.30
2011,11,17,01,32,5.30
2011,11,17,01,33,5.30
2011,11,17,01,34,5.30
2011,11,17,01,35,5.20
2011,11,17,01,36,5.20
2011,11,17,01,37,5.20
2011,11,17,01,38,5.10
2011,11,17,01,39,5.10
2011,11,17,01,40,5.10
2011,11,17,01,41,5.10
2011,11,17,01,42,5.10
2011,11,17,01,43,5.10
2011,11,17,01,44,5.10
2011,11,17,01,45,5.10
2011,11,17,01,46,5.10
2011,11,17,01,47,5.10
2011,11,17,01,48,5.10
2011,11,17,01,49,5.10
2011,11,17,01,50,5.10
2011,11,17,01,51,5.10
2011,11,17,01,52,5.10
2011,11,17,01,53,5.10
2011,11,17,01,54,5.10
2011,11,17,01,55,5.10
2011,11,17,01,56,5.10
2011,11,17,01,57,5.10
2011,11,17,01,58,5.10
2011,11,17,01,59,5.10
2011,11,17,02,00,5.10
2011,11,17,02,01,5.10
2011,11,17,02,02,5.10
2011,11,17,02,03,5.10
2011,11,17,02,04,5.20
2011,11,17,02,05,5.20
2011,11,17,02,06,5.20
2011,11,17,02,07,5.20
2011,11,17,02,08,5.20
2011,11,17,02,09,5.20
2011,11,17,02,10,5.20
2011,11,17,02,11,5.30
2011,11,17,02,12,5.30
2011,11,17,02,13,5.30
2011,11,17,02,14,5.30
2011,11,17,02,15,5.30
2011,11,17,02,16,5.40
2011,11,17,02,17,5.40
2011,11,17,02,18,5.40
2011,11,17,02,19,5.40
2011,11,17,02,20,5.30
2011,11,17,02,21,5.30
2011,11,17,02,22,5.30
2011,11,17,02,23,5.30
2011,11,17,02,24,5.30
2011,11,17,02,25,5.30
2011,11,17,02,26,5.30
2011,11,17,02,27,5.30
2011,11,17,02,28,5.30
2011,11,17,02,29,5.30
2011,11,17,02,30,5.30
2011,11,17,02,31,5.30
2011,11,17,02,32,5.30
2011,11,17,02,33,5.30
2011,11,17,02,34,5.30
2011,11,17,02,35,5.30
2011,11,17,02,36,5.30
2011,11,17,02,37,5.20
2011,11,17,02,38,5.20
2011,11,17,02,39,5.20
2011,11,17,02,40,5.10
2011,11,17,02,41,5.10
2011,11,17,02,42,5.20
2011,11,17,02,43,5.20
2011,11,17,02,44,5.20
2011,11,17,02,45,5.20
2011,11,17,02,46,5.20
2011,11,17,02,47,5.10
2011,11,17,02,48,5.10
2011,11,17,02,49,5.10
2011,11,17,02,50,5.10
2011,11,17,02,51,5.10
2011,11,17,02,52,5.10
2011,11,17,02,53,5.10
2011,11,17,02,54,5.10
2011,11,17,02,55,5.10
2011,11,17,02,56,5.10
2011,11,17,02,57,5.10
2011,11,17,02,58,5.10
2011,11,17,02,59,5.00
2011,11,17,03,00,4.90
2011,11,17,03,01,4.90
2011,11,17,03,02,4.90
2011,11,17,03,03,4.90
2011,11,17,03,04,4.90
2011,11,17,03,05,4.90
2011,11,17,03,06,4.90
2011,11,17,03,07,4.80
2011,11,17,03,08,4.80
2011,11,17,03,09,4.80
2011,11,17,03,10,4.80
2011,11,17,03,11,4.80
2011,11,17,03,12,4.80
2011,11,17,03,13,4.70
2011,11,17,03,14,4.70
2011,11,17,03,15,4.70
2011,11,17,03,16,4.70
2011,11,17,03,17,4.60
2011,11,17,03,18,4.60
2011,11,17,03,19,4.60
2011,11,17,03,20,4.50
2011,11,17,03,21,4.50
2011,11,17,03,22,4.40
2011,11,17,03,23,4.30
2011,11,17,03,24,4.20
2011,11,17,03,25,4.10
2011,11,17,03,26,4.00
2011,11,17,03,27,3.90
2011,11,17,03,28,3.80
2011,11,17,03,29,3.70
2011,11,17,03,30,3.70
2011,11,17,03,31,3.70
2011,11,17,03,32,3.60
2011,11,17,03,33,3.60
2011,11,17,03,34,3.60
2011,11,17,03,35,3.50
2011,11,17,03,36,3.50
2011,11,17,03,37,3.50
2011,11,17,03,38,3.40
2011,11,17,03,39,3.40
2011,11,17,03,40,3.30
2011,11,17,03,41,3.30
2011,11,17,03,42,3.30
2011,11,17,03,43,3.30
2011,11,17,03,44,3.20
2011,11,17,03,45,3.20
2011,11,17,03,46,3.10
2011,11,17,03,47,3.10
2011,11,17,03,48,3.00
2011,11,17,03,49,2.90
2011,11,17,03,50,2.90
2011,11,17,03,51,2.80
2011,11,17,03,52,2.80
2011,11,17,03,53,2.80
2011,11,17,03,54,2.80
2011,11,17,03,55,2.70
2011,11,17,03,56,2.70
2011,11,17,03,57,2.70
2011,11,17,03,58,2.70
2011,11,17,03,59,2.70
2011,11,17,04,00,2.70
2011,11,17,04,01,2.70
2011,11,17,04,02,2.70
2011,11,17,04,03,2.70
2011,11,17,04,04,2.70
2011,11,17,04,05,2.70
2011,11,17,04,06,2.70
2011,11,17,04,07,2.70
2011,11,17,04,08,2.70
2011,11,17,04,09,2.70
2011,11,17,04,10,2.70
2011,11,17,04,11,2.60
2011,11,17,04,12,2.60
2011,11,17,04,13,2.60
2011,11,17,04,14,2.60
2011,11,17,04,15,2.60
2011,11,17,04,16,2.60
2011,11,17,04,17,2.60
2011,11,17,04,18,2.60
2011,11,17,04,19,2.60
2011,11,17,04,20,2.60
2011,11,17,04,21,2.60
2011,11,17,04,22,2.60
2011,11,17,04,23,2.70
2011,11,17,04,24,2.70
2011,11,17,04,25,2.80
2011,11,17,04,26,2.80
2011,11,17,04,27,2.90
2011,11,17,04,28,3.00
2011,11,17,04,29,3.10
2011,11,17,04,30,3.10
2011,11,17,04,31,3.20
2011,11,17,04,32,3.20
2011,11,17,04,33,3.30
2011,11,17,04,34,3.30
2011,11,17,04,35,3.30
2011,11,17,04,36,3.30
2011,11,17,04,37,3.30
2011,11,17,04,38,3.30
2011,11,17,04,39,3.30
2011,11,17,04,40,3.30
2011,11,17,04,41,3.20
2011,11,17,04,42,3.20
2011,11,17,04,43,3.20
2011,11,17,04,44,3.20
2011,11,17,04,45,3.20
2011,11,17,04,46,3.10
2011,11,17,04,47,3.10
2011,11,17,04,48,3.10
2011,11,17,04,49,3.10
2011,11,17,04,50,3.10
2011,11,17,04,51,3.00
2011,11,17,04,52,2.90
2011,11,17,04,53,2.90
2011,11,17,04,54,2.90
2011,11,17,04,55,2.90
2011,11,17,04,56,2.90
2011,11,17,04,57,2.90
2011,11,17,04,58,2.90
2011,11,17,04,59,2.90
2011,11,17,05,00,2.90
2011,11,17,05,01,2.80
2011,11,17,05,02,2.80
2011,11,17,05,03,2.80
2011,11,17,05,04,2.80
2011,11,17,05,05,2.80
2011,11,17,05,06,2.80
2011,11,17,05,07,2.80
2011,11,17,05,08,2.80
2011,11,17,05,09,2.90
2011,11,17,05,10,2.90
2011,11,17,05,11,2.90
2011,11,17,05,12,2.90
2011,11,17,05,13,2.90
2011,11,17,05,14,2.90
2011,11,17,05,15,3.00
2011,11,17,05,16,3.10
2011,11,17,05,17,3.10
2011,11,17,05,18,3.10
2011,11,17,05,19,3.10
2011,11,17,05,20,3.10
2011,11,17,05,21,3.10
2011,11,17,05,22,3.10
2011,11,17,05,23,3.10
2011,11,17,05,24,3.10
2011,11,17,05,25,3.10
2011,11,17,05,26,3.10
2011,11,17,05,27,3.10
2011,11,17,05,28,3.10
2011,11,17,05,29,3.10
2011,11,17,05,30,3.10
2011,11,17,05,31,3.10
2011,11,17,05,32,3.10
2011,11,17,05,33,3.10
2011,11,17,05,34,3.10
2011,11,17,05,35,3.10
2011,11,17,05,36,3.10
2011,11,17,05,37,3.10
2011,11,17,05,38,3.10
2011,11,17,05,39,3.10
2011,11,17,05,40,3.10
2011,11,17,05,41,3.10
2011,11,17,05,42,3.10
2011,11,17,05,43,3.10
2011,11,17,05,44,3.00
2011,11,17,05,45,2.90
2011,11,17,05,46,2.90
2011,11,17,05,47,2.90
2011,11,17,05,48,2.90
2011,11,17,05,49,2.90
2011,11,17,05,50,2.90
2011,11,17,05,51,2.90
2011,11,17,05,52,2.90
2011,11,17,05,53,2.80
2011,11,17,05,54,2.80
2011,11,17,05,55,2.80
2011,11,17,05,56,2.80
2011,11,17,05,57,2.90
2011,11,17,05,58,2.90
2011,11,17,05,59,2.90
2011,11,17,06,00,2.90
2011,11,17,06,01,2.90
2011,11,17,06,02,2.90
2011,11,17,06,03,2.90
2011,11,17,06,04,2.90
2011,11,17,06,05,2.90
2011,11,17,06,06,2.90
2011,11,17,06,07,2.90
2011,11,17,06,08,2.80
2011,11,17,06,09,2.80
2011,11,17,06,10,2.80
2011,11,17,06,11,2.80
2011,11,17,06,12,2.70
2011,11,17,06,13,2.70
2011,11,17,06,14,2.70
2011,11,17,06,15,2.70
2011,11,17,06,16,2.60
2011,11,17,06,17,2.60
2011,11,17,06,18,2.60
2011,11,17,06,19,2.50
2011,11,17,06,20,2.50
2011,11,17,06,21,2.50
2011,11,17,06,22,2.40
2011,11,17,06,23,2.40
2011,11,17,06,24,2.40
2011,11,17,06,25,2.30
2011,11,17,06,26,2.30
2011,11,17,06,27,2.20
2011,11,17,06,28,2.20
2011,11,17,06,29,2.20
2011,11,17,06,30,2.10
2011,11,17,06,31,2.00
2011,11,17,06,32,2.00
2011,11,17,06,33,2.00
2011,11,17,06,34,1.90
2011,11,17,06,35,1.90
2011,11,17,06,36,1.80
2011,11,17,06,37,1.80
2011,11,17,06,38,1.80
2011,11,17,06,39,1.80
2011,11,17,06,40,1.80
2011,11,17,06,41,1.80
2011,11,17,06,42,1.80
2011,11,17,06,43,1.70
2011,11,17,06,44,1.70
2011,11,17,06,45,1.70
2011,11,17,06,46,1.70
2011,11,17,06,47,1.70
2011,11,17,06,48,1.70
2011,11,17,06,49,1.70
2011,11,17,06,50,1.80
2011,11,17,06,51,1.80
2011,11,17,06,52,1.80
2011,11,17,06,53,1.70
2011,11,17,06,54,1.70
2011,11,17,06,55,1.70
2011,11,17,06,56,1.70
2011,11,17,06,57,1.70
2011,11,17,06,58,1.70
2011,11,17,06,59,1.70
2011,11,17,07,00,1.70
2011,11,17,07,01,1.60
2011,11,17,07,02,1.60
2011,11,17,07,03,1.60
2011,11,17,07,04,1.50
2011,11,17,07,05,1.50
2011,11,17,07,06,1.50
2011,11,17,07,07,1.50
2011,11,17,07,08,1.50
2011,11,17,07,09,1.40
2011,11,17,07,10,1.40
2011,11,17,07,11,1.30
2011,11,17,07,12,1.30
2011,11,17,07,13,1.30
2011,11,17,07,14,1.20
2011,11,17,07,15,1.20
2011,11,17,07,16,1.20
2011,11,17,07,17,1.20
2011,11,17,07,18,1.20
2011,11,17,07,19,1.20
2011,11,17,07,20,1.20
2011,11,17,07,21,1.30
2011,11,17,07,22,1.30
2011,11,17,07,23,1.30
2011,11,17,07,24,1.30
2011,11,17,07,25,1.30
2011,11,17,07,26,1.30
2011,11,17,07,27,1.30
2011,11,17,07,28,1.30
2011,11,17,07,29,1.30
2011,11,17,07,30,1.30
2011,11,17,07,31,1.30
2011,11,17,07,32,1.30
2011,11,17,07,33,1.30
2011,11,17,07,34,1.30
2011,11,17,07,35,1.30
2011,11,17,07,36,1.30
2011,11,17,07,37,1.30
2011,11,17,07,38,1.30
2011,11,17,07,39,1.30
2011,11,17,07,40,1.30
2011,11,17,07,41,1.30
2011,11,17,07,42,1.30
2011,11,17,07,43,1.30
2011,11,17,07,44,1.30
2011,11,17,07,45,1.20
2011,11,17,07,46,1.20
2011,11,17,07,47,1.20
2011,11,17,07,48,1.20
2011,11,17,07,49,1.20
2011,11,17,07,50,1.20
2011,11,17,07,51,1.20
2011,11,17,07,52,1.30
2011,11,17,07,53,1.30
2011,11,17,07,54,1.40
2011,11,17,07,55,1.40
2011,11,17,07,56,1.40
2011,11,17,07,57,1.30
2011,11,17,07,58,1.30
2011,11,17,07,59,1.30
2011,11,17,08,00,1.30
2011,11,17,08,01,1.30
2011,11,17,08,02,1.30
2011,11,17,08,03,1.30
2011,11,17,08,04,1.30
2011,11,17,08,05,1.30
2011,11,17,08,06,1.30
2011,11,17,08,07,1.30
2011,11,17,08,08,1.40
2011,11,17,08,09,1.40
2011,11,17,08,10,1.40
2011,11,17,08,11,1.40
2011,11,17,08,12,1.40
2011,11,17,08,13,1.50
2011,11,17,08,14,1.50
2011,11,17,08,15,1.50
2011,11,17,08,16,1.60
2011,11,17,08,17,1.60
2011,11,17,08,18,1.60
2011,11,17,08,19,1.60
2011,11,17,08,20,1.60
2011,11,17,08,21,1.60
2011,11,17,08,22,1.60
2011,11,17,08,23,1.50
2011,11,17,08,24,1.50
2011,11,17,08,25,1.50
2011,11,17,08,26,1.50
2011,11,17,08,27,1.50
2011,11,17,08,28,1.50
2011,11,17,08,29,1.50
2011,11,17,08,30,1.40
2011,11,17,08,31,1.40
2011,11,17,08,32,1.40
2011,11,17,08,33,1.40
2011,11,17,08,34,1.40
2011,11,17,08,35,1.40
2011,11,17,08,36,1.30
2011,11,17,08,37,1.30
2011,11,17,08,38,1.30
2011,11,17,08,39,1.30
2011,11,17,08,40,1.30
2011,11,17,08,41,1.30
2011,11,17,08,42,1.30
2011,11,17,08,43,1.30
2011,11,17,08,44,1.30
2011,11,17,08,45,1.40
2011,11,17,08,46,1.40
2011,11,17,08,47,1.50
2011,11,17,08,48,1.50
2011,11,17,08,49,1.50
2011,11,17,08,50,1.50
2011,11,17,08,51,1.50
2011,11,17,08,52,1.50
2011,11,17,08,53,1.50
2011,11,17,08,54,1.50
2011,11,17,08,55,1.50
2011,11,17,08,56,1.50
2011,11,17,08,57,1.50
2011,11,17,08,58,1.60
2011,11,17,08,59,1.60
2011,11,17,09,00,1.70
2011,11,17,09,01,1.70
2011,11,17,09,02,1.80
2011,11,17,09,03,1.80
2011,11,17,09,04,1.80
2011,11,17,09,05,1.90
2011,11,17,09,06,2.00
2011,11,17,09,07,2.10
2011,11,17,09,08,2.20
2011,11,17,09,09,2.20
2011,11,17,09,10,2.30
2011,11,17,09,11,2.40
2011,11,17,09,12,2.40
2011,11,17,09,13,2.50
2011,11,17,09,14,2.50
2011,11,17,09,15,2.60
2011,11,17,09,16,2.70
2011,11,17,09,17,2.70
2011,11,17,09,18,2.70
2011,11,17,09,19,2.80
2011,11,17,09,20,2.80
2011,11,17,09,21,2.90
2011,11,17,09,22,2.90
2011,11,17,09,23,2.90
2011,11,17,09,24,2.90
2011,11,17,09,25,2.90
2011,11,17,09,26,2.90
2011,11,17,09,27,2.90
2011,11,17,09,28,2.90
2011,11,17,09,29,2.90
2011,11,17,09,30,2.90
2011,11,17,09,31,2.90
2011,11,17,09,32,2.90
2011,11,17,09,33,3.00
2011,11,17,09,34,3.10
2011,11,17,09,35,3.10
2011,11,17,09,36,3.20
2011,11,17,09,37,3.30
2011,11,17,09,38,3.30
2011,11,17,09,39,3.30
2011,11,17,09,40,3.40
2011,11,17,09,41,3.40
2011,11,17,09,42,3.50
2011,11,17,09,43,3.50
2011,11,17,09,44,3.60
2011,11,17,09,45,3.60
2011,11,17,09,46,3.60
2011,11,17,09,47,3.70
2011,11,17,09,48,3.70
2011,11,17,09,49,3.70
2011,11,17,09,50,3.80
2011,11,17,09,51,3.80
2011,11,17,09,52,3.80
2011,11,17,09,53,3.80
2011,11,17,09,54,3.80
2011,11,17,09,55,3.80
2011,11,17,09,56,3.80
2011,11,17,09,57,3.80
2011,11,17,09,58,3.80
2011,11,17,09,59,3.80
2011,11,17,10,00,3.80
2011,11,17,10,01,3.80
2011,11,17,10,02,3.80
2011,11,17,10,03,3.80
2011,11,17,10,04,3.80
2011,11,17,10,05,3.80
2011,11,17,10,06,3.80
2011,11,17,10,07,3.80
2011,11,17,10,08,3.90
2011,11,17,10,09,3.90
2011,11,17,10,10,4.00
2011,11,17,10,11,4.00
2011,11,17,10,12,4.00
2011,11,17,10,13,4.00
2011,11,17,10,14,4.00
2011,11,17,10,15,3.90
2011,11,17,10,16,3.90
2011,11,17,10,17,3.90
2011,11,17,10,18,3.90
2011,11,17,10,19,3.90
2011,11,17,10,20,3.90
2011,11,17,10,21,3.90
2011,11,17,10,22,3.80
2011,11,17,10,23,3.80
2011,11,17,10,24,3.90
2011,11,17,10,25,3.90
2011,11,17,10,26,4.00
2011,11,17,10,27,4.00
2011,11,17,10,28,4.10
2011,11,17,10,29,4.20
2011,11,17,10,30,4.30
2011,11,17,10,31,4.40
2011,11,17,10,32,4.40
2011,11,17,10,33,4.40
2011,11,17,10,34,4.50
2011,11,17,10,35,4.50
2011,11,17,10,36,4.50
2011,11,17,10,37,4.50
2011,11,17,10,38,4.60
2011,11,17,10,39,4.60
2011,11,17,10,40,4.60
2011,11,17,10,41,4.60
2011,11,17,10,42,4.70
2011,11,17,10,43,4.70
2011,11,17,10,44,4.80
2011,11,17,10,45,4.80
2011,11,17,10,46,4.80
2011,11,17,10,47,4.80
2011,11,17,10,48,4.70
2011,11,17,10,49,4.70
2011,11,17,10,50,4.70
2011,11,17,10,51,4.80
2011,11,17,10,52,4.80
2011,11,17,10,53,4.80
2011,11,17,10,54,4.80
2011,11,17,10,55,4.80
2011,11,17,10,56,4.80
2011,11,17,10,57,4.80
2011,11,17,10,58,4.80
2011,11,17,10,59,4.70
2011,11,17,11,00,4.70
2011,11,17,11,01,4.60
2011,11,17,11,02,4.60
2011,11,17,11,03,4.60
2011,11,17,11,04,4.60
2011,11,17,11,05,4.50
2011,11,17,11,06,4.50
2011,11,17,11,07,4.40
2011,11,17,11,08,4.40
2011,11,17,11,09,4.40
2011,11,17,11,10,4.30
2011,11,17,11,11,4.30
2011,11,17,11,12,4.20
2011,11,17,11,13,4.20
2011,11,17,11,14,4.20
2011,11,17,11,15,4.20
2011,11,17,11,16,4.20
2011,11,17,11,17,4.20
2011,11,17,11,18,4.20
2011,11,17,11,19,4.20
2011,11,17,11,20,4.20
2011,11,17,11,21,4.20
2011,11,17,11,22,4.10
2011,11,17,11,23,4.10
2011,11,17,11,24,4.00
2011,11,17,11,25,4.00
2011,11,17,11,26,3.90
2011,11,17,11,27,3.90
2011,11,17,11,28,3.80
2011,11,17,11,29,3.80
2011,11,17,11,30,3.80
2011,11,17,11,31,3.80
2011,11,17,11,32,3.70
2011,11,17,11,33,3.60
2011,11,17,11,34,3.50
2011,11,17,11,35,3.50
2011,11,17,11,36,3.50
2011,11,17,11,37,3.40
2011,11,17,11,38,3.50
2011,11,17,11,39,3.50
2011,11,17,11,40,3.50
2011,11,17,11,41,3.50
2011,11,17,11,42,3.50
2011,11,17,11,43,3.60
2011,11,17,11,44,3.60
2011,11,17,11,45,3.60
2011,11,17,11,46,3.60
2011,11,17,11,47,3.60
2011,11,17,11,48,3.60
2011,11,17,11,49,3.60
2011,11,17,11,50,3.60
2011,11,17,11,51,3.60
2011,11,17,11,52,3.50
2011,11,17,11,53,3.50
2011,11,17,11,54,3.50
2011,11,17,11,55,3.50
2011,11,17,11,56,3.50
2011,11,17,11,57,3.50
2011,11,17,11,58,3.50
2011,11,17,11,59,3.50
2011,11,17,12,00,3.50
2011,11,17,12,01,3.40
2011,11,17,12,02,3.40
2011,11,17,12,03,3.40
2011,11,17,12,04,3.40
2011,11,17,12,05,3.40
2011,11,17,12,06,3.40
2011,11,17,12,07,3.40
2011,11,17,12,08,3.40
2011,11,17,12,09,3.50
2011,11,17,12,10,3.50
2011,11,17,12,11,3.50
2011,11,17,12,12,3.50
2011,11,17,12,13,3.50
2011,11,17,12,14,3.50
2011,11,17,12,15,3.50
2011,11,17,12,16,3.60
2011,11,17,12,17,3.60
2011,11,17,12,18,3.60
2011,11,17,12,19,3.60
2011,11,17,12,20,3.60
2011,11,17,12,21,3.60
2011,11,17,12,22,3.60
2011,11,17,12,23,3.60
2011,11,17,12,24,3.60
2011,11,17,12,25,3.70
2011,11,17,12,26,3.70
2011,11,17,12,27,3.70
2011,11,17,12,28,3.70
2011,11,17,12,29,3.70
2011,11,17,12,30,3.70
2011,11,17,12,31,3.70
2011,11,17,12,32,3.70
2011,11,17,12,33,3.80
2011,11,17,12,34,3.80
2011,11,17,12,35,3.80
2011,11,17,12,36,3.80
2011,11,17,12,37,3.80
2011,11,17,12,38,3.80
2011,11,17,12,39,3.80
2011,11,17,12,40,3.80
2011,11,17,12,41,3.90
2011,11,17,12,42,3.90
2011,11,17,12,43,3.90
2011,11,17,12,44,3.90
2011,11,17,12,45,4.00
2011,11,17,12,46,4.00
2011,11,17,12,47,4.00
2011,11,17,12,48,4.00
2011,11,17,12,49,4.10
2011,11,17,12,50,4.10
2011,11,17,12,51,4.10
2011,11,17,12,52,4.10
2011,11,17,12,53,4.10
2011,11,17,12,54,4.10
2011,11,17,12,55,4.10
2011,11,17,12,56,4.10
2011,11,17,12,57,4.10
2011,11,17,12,58,4.10
2011,11,17,12,59,4.10
2011,11,17,13,00,4.10
2011,11,17,13,01,4.00
2011,11,17,13,02,4.00
2011,11,17,13,03,4.00
2011,11,17,13,04,3.90
2011,11,17,13,05,3.90
2011,11,17,13,06,3.90
2011,11,17,13,07,3.90
2011,11,17,13,08,3.90
2011,11,17,13,09,3.90
2011,11,17,13,10,3.90
2011,11,17,13,11,3.90
2011,11,17,13,12,3.90
2011,11,17,13,13,3.80
2011,11,17,13,14,3.80
2011,11,17,13,15,3.80
2011,11,17,13,16,3.80
2011,11,17,13,17,3.80
2011,11,17,13,18,3.80
2011,11,17,13,19,3.80
2011,11,17,13,20,3.80
2011,11,17,13,21,3.80
2011,11,17,13,22,3.80
2011,11,17,13,23,3.80
2011,11,17,13,24,3.80
2011,11,17,13,25,3.80
2011,11,17,13,26,3.80
2011,11,17,13,27,3.80
2011,11,17,13,28,3.80
2011,11,17,13,29,3.80
2011,11,17,13,30,3.80
2011,11,17,13,31,3.80
2011,11,17,13,32,3.80
2011,11,17,13,33,3.80
2011,11,17,13,34,3.80
2011,11,17,13,35,3.80
2011,11,17,13,36,3.80
2011,11,17,13,37,3.80
2011,11,17,13,38,3.80
2011,11,17,13,39,3.80
2011,11,17,13,40,3.80
2011,11,17,13,41,3.80
2011,11,17,13,42,3.80
2011,11,17,13,43,3.80
2011,11,17,13,44,3.80
2011,11,17,13,45,3.80
2011,11,17,13,46,3.80
2011,11,17,13,47,3.80
2011,11,17,13,48,3.80
2011,11,17,13,49,3.80
2011,11,17,13,50,3.80
2011,11,17,13,51,3.70
2011,11,17,13,52,3.70
2011,11,17,13,53,3.70
2011,11,17,13,54,3.70
2011,11,17,13,55,3.70
2011,11,17,13,56,3.70
2011,11,17,13,57,3.70
2011,11,17,13,58,3.70
2011,11,17,13,59,3.70
2011,11,17,14,00,3.70
2011,11,17,14,01,3.60
2011,11,17,14,02,3.60
2011,11,17,14,03,3.70
2011,11,17,14,04,3.70
2011,11,17,14,05,3.70
2011,11,17,14,06,3.60
2011,11,17,14,07,3.60
2011,11,17,14,08,3.60
2011,11,17,14,09,3.50
2011,11,17,14,10,3.50
2011,11,17,14,11,3.50
2011,11,17,14,12,3.50
2011,11,17,14,13,3.50
2011,11,17,14,14,3.50
2011,11,17,14,15,3.50
2011,11,17,14,16,3.60
2011,11,17,14,17,3.60
2011,11,17,14,18,3.60
2011,11,17,14,19,3.60
2011,11,17,14,20,3.60
2011,11,17,14,21,3.60
2011,11,17,14,22,3.60
2011,11,17,14,23,3.60
2011,11,17,14,24,3.60
2011,11,17,14,25,3.60
2011,11,17,14,26,3.60
2011,11,17,14,27,3.60
2011,11,17,14,28,3.60
2011,11,17,14,29,3.60
2011,11,17,14,30,3.60
2011,11,17,14,31,3.60
2011,11,17,14,32,3.60
2011,11,17,14,33,3.60
2011,11,17,14,34,3.60
2011,11,17,14,35,3.60
2011,11,17,14,36,3.60
2011,11,17,14,37,3.60
2011,11,17,14,38,3.70
2011,11,17,14,39,3.70
2011,11,17,14,40,3.70
2011,11,17,14,41,3.70
2011,11,17,14,42,3.60
2011,11,17,14,43,3.60
2011,11,17,14,44,3.60
2011,11,17,14,45,3.60
2011,11,17,14,46,3.60
2011,11,17,14,47,3.60
2011,11,17,14,48,3.60
2011,11,17,14,49,3.60
2011,11,17,14,50,3.60
2011,11,17,14,51,3.60
2011,11,17,14,52,3.60
2011,11,17,14,53,3.60
2011,11,17,14,54,3.60
2011,11,17,14,55,3.60
2011,11,17,14,56,3.60
2011,11,17,14,57,3.60
2011,11,17,14,58,3.60
2011,11,17,14,59,3.60
2011,11,17,15,00,3.60
2011,11,17,15,01,3.60
2011,11,17,15,02,3.60
2011,11,17,15,03,3.60
2011,11,17,15,04,3.50
2011,11,17,15,05,3.50
2011,11,17,15,06,3.50
2011,11,17,15,07,3.50
2011,11,17,15,08,3.50
2011,11,17,15,09,3.50
2011,11,17,15,10,3.40
2011,11,17,15,11,3.40
2011,11,17,15,12,3.40
2011,11,17,15,13,3.40
2011,11,17,15,14,3.40
2011,11,17,15,15,3.30
2011,11,17,15,16,3.30
2011,11,17,15,17,3.30
2011,11,17,15,18,3.30
2011,11,17,15,19,3.30
2011,11,17,15,20,3.30
2011,11,17,15,21,3.30
2011,11,17,15,22,3.30
2011,11,17,15,23,3.20
2011,11,17,15,24,3.20
2011,11,17,15,25,3.20
2011,11,17,15,26,3.10
2011,11,17,15,27,3.10
2011,11,17,15,28,3.10
2011,11,17,15,29,3.10
2011,11,17,15,30,3.10
2011,11,17,15,31,3.00
2011,11,17,15,32,2.90
2011,11,17,15,33,2.90
2011,11,17,15,34,2.90
2011,11,17,15,35,2.90
2011,11,17,15,36,2.90
2011,11,17,15,37,2.90
2011,11,17,15,38,2.90
2011,11,17,15,39,2.90
2011,11,17,15,40,2.90
2011,11,17,15,41,2.90
2011,11,17,15,42,2.80
2011,11,17,15,43,2.80
2011,11,17,15,44,2.80
2011,11,17,15,45,2.80
2011,11,17,15,46,2.80
2011,11,17,15,47,2.80
2011,11,17,15,48,2.70
2011,11,17,15,49,2.70
2011,11,17,15,50,2.70
2011,11,17,15,51,2.70
2011,11,17,15,52,2.70
2011,11,17,15,53,2.70
2011,11,17,15,54,2.70
2011,11,17,15,55,2.70
2011,11,17,15,56,2.70
2011,11,17,15,57,2.70
2011,11,17,15,58,2.70
2011,11,17,15,59,2.70
2011,11,17,16,00,2.70
2011,11,17,16,01,2.70
2011,11,17,16,02,2.70
2011,11,17,16,03,2.70
2011,11,17,16,04,2.70
2011,11,17,16,05,2.70
2011,11,17,16,06,2.70
2011,11,17,16,07,2.70
2011,11,17,16,08,2.70
2011,11,17,16,09,2.70
2011,11,17,16,10,2.70
2011,11,17,16,11,2.70
2011,11,17,16,12,2.70
2011,11,17,16,13,2.60
2011,11,17,16,14,2.60
2011,11,17,16,15,2.60
2011,11,17,16,16,2.60
2011,11,17,16,17,2.60
2011,11,17,16,18,2.60
2011,11,17,16,19,2.60
2011,11,17,16,20,2.60
2011,11,17,16,21,2.60
2011,11,17,16,22,2.50
2011,11,17,16,23,2.50
2011,11,17,16,24,2.60
2011,11,17,16,25,2.60
2011,11,17,16,26,2.60
2011,11,17,16,27,2.60
2011,11,17,16,28,2.50
2011,11,17,16,29,2.50
2011,11,17,16,30,2.50
2011,11,17,16,31,2.50
2011,11,17,16,32,2.50
2011,11,17,16,33,2.50
2011,11,17,16,34,2.50
2011,11,17,16,35,2.50
2011,11,17,16,36,2.50
2011,11,17,16,37,2.50
2011,11,17,16,38,2.50
2011,11,17,16,39,2.50
2011,11,17,16,40,2.50
2011,11,17,16,41,2.50
2011,11,17,16,42,2.50
2011,11,17,16,43,2.50
2011,11,17,16,44,2.50
2011,11,17,16,45,2.50
2011,11,17,16,46,2.50
2011,11,17,16,47,2.50
2011,11,17,16,48,2.50
2011,11,17,16,49,2.50
2011,11,17,16,50,2.50
2011,11,17,16,51,2.50
2011,11,17,16,52,2.50
2011,11,17,16,53,2.50
2011,11,17,16,54,2.50
2011,11,17,16,55,2.50
2011,11,17,16,56,2.40
2011,11,17,16,57,2.40
2011,11,17,16,58,2.40
2011,11,17,16,59,2.40
2011,11,17,17,00,2.40
2011,11,17,17,01,2.40
2011,11,17,17,02,2.40
2011,11,17,17,03,2.40
2011,11,17,17,04,2.40
2011,11,17,17,05,2.40
2011,11,17,17,06,2.40
2011,11,17,17,07,2.40
2011,11,17,17,08,2.40
2011,11,17,17,09,2.40
2011,11,17,17,10,2.40
2011,11,17,17,11,2.40
2011,11,17,17,12,2.40
2011,11,17,17,13,2.40
2011,11,17,17,14,2.40
2011,11,17,17,15,2.30
2011,11,17,17,16,2.30
2011,11,17,17,17,2.30
2011,11,17,17,18,2.30
2011,11,17,17,19,2.30
2011,11,17,17,20,2.30
2011,11,17,17,21,2.30
2011,11,17,17,22,2.30
2011,11,17,17,23,2.30
2011,11,17,17,24,2.30
2011,11,17,17,25,2.30
2011,11,17,17,26,2.30
2011,11,17,17,27,2.30
2011,11,17,17,28,2.30
2011,11,17,17,29,2.30
2011,11,17,17,30,2.30
2011,11,17,17,31,2.30
2011,11,17,17,32,2.30
2011,11,17,17,33,2.30
2011,11,17,17,34,2.30
2011,11,17,17,35,2.30
2011,11,17,17,36,2.30
2011,11,17,17,37,2.30
2011,11,17,17,38,2.30
2011,11,17,17,39,2.20
2011,11,17,17,40,2.20
2011,11,17,17,41,2.20
2011,11,17,17,42,2.30
2011,11,17,17,43,2.30
2011,11,17,17,44,2.30
2011,11,17,17,45,2.30
2011,11,17,17,46,2.30
2011,11,17,17,47,2.30
2011,11,17,17,48,2.30
2011,11,17,17,49,2.30
2011,11,17,17,50,2.30
2011,11,17,17,51,2.30
2011,11,17,17,52,2.30
2011,11,17,17,53,2.30
2011,11,17,17,54,2.30
2011,11,17,17,55,2.30
2011,11,17,17,56,2.30
2011,11,17,17,57,2.30
2011,11,17,17,58,2.30
2011,11,17,17,59,2.30
2011,11,17,18,00,2.30
2011,11,17,18,01,2.30
2011,11,17,18,02,2.30
2011,11,17,18,03,2.20
2011,11,17,18,04,2.20
2011,11,17,18,05,2.20
2011,11,17,18,06,2.20